3D CGI
IDAuthorSubjectPosts Images Last Post
11569Drabok My 3D Pics 391 253 2017-08-20 16:02:20
13716Freeman Freeman's SFM animations- Second Thread 13 2 2017-08-20 15:44:28
5248 Orc vs Elf 45 29 2017-08-20 14:31:07
10076Dorumeka Dorumeka's interactive dorus 59 7 2017-08-20 10:04:59
6369FunnyBizness The Tragic side of Funnybizness 358 144 2017-08-20 09:27:20
13299OP SFM Animations and Scraps: The Fourth 124 13 2017-08-20 03:57:56
397eyeteeth eyeteeth's doomed heroines 164 82 2017-08-19 20:44:07
13733 Gmod 11 7 2017-08-19 20:06:41
11677TG The Artwork of Kathyrne 31 23 2017-08-19 03:36:00
9079Onix My first series 309 162 2017-08-18 23:56:48
13138Puzudz Puzudz SFM alley 67 9 2017-08-18 02:31:06
2235Mr Misery Misery Alley 156 41 2017-08-18 00:06:59
13747Jean Warcraft manipulation/3d guro 6 3 2017-08-17 20:58:46
212Smokey12345 Smokey 12345 official 176 87 2017-08-16 23:33:09
1931 SFM animations and scraps. 876 99 2017-08-16 05:28:01
2187 Pestilence's Snuff and Rough Stuff 467 32 2017-08-15 23:53:50
4411Freeman Freeman's sfm animations 172 33 2017-08-15 12:46:17
4031 EVMC 395 187 2017-08-15 02:47:43
5949 MY 3d artworks 11 5 2017-08-14 16:12:00
148 Lollis 647 466 2017-08-14 08:14:21
9020grgr444 My works 441 339 2017-08-13 16:17:35
2727 Causually hanging mmd models 50 22 2017-08-12 23:47:51
3642BBQ_Boysnuff Insomniac 3D Boy gore 73 28 2017-08-12 11:20:13
9992samme Sarah & Clementine loli 3d 59 28 2017-08-10 22:44:25
12625 Honey Select 50 34 2017-08-09 23:29:52
13369 Free For All SFM Pictures. 6 3 2017-08-08 18:57:23
7313Aya Aya CG 25 19 2017-08-08 14:44:51
260SirCharmander CG Detachment/Modular 291 180 2017-08-08 11:11:56
13399TLOT Elvira Corleone (female version of Sonny Corleone execution) 30 28 2017-08-07 11:57:08
304 Waldo 177 132 2017-08-07 04:27:42
1827 Skyrim 93 63 2017-08-06 00:30:11
420KillerX New Exclusive KillerX thread 220 108 2017-08-05 19:54:48
10159rediculo rediculo's one-offs 35 11 2017-08-05 15:26:44
8840OP SFM Animations and Scraps; The Third Thread 819 71 2017-08-05 05:40:32
5522 Demullotto 141 127 2017-08-04 02:45:32
5180OP SFM Animations and Scraps Continued 810 64 2017-08-03 19:23:08
1460 DAZ3D Art 49 28 2017-07-31 18:12:28
2785Otakuist Tit eating poser 120 111 2017-07-30 18:23:08
6429Garethan Garethan's little 3D corner. 220 144 2017-07-30 09:37:55
2029 3D Hanging thread 93 77 2017-07-28 23:08:35
13121Lazy_Ashby Lazy_Ashby (photoshop) :3 4 1 2017-07-28 12:41:21
13105Wing R Wing R's XNALARA / Illusion picture 16 14 2017-07-26 21:49:13
10101Onix Stereo 3D 8 5 2017-07-26 11:02:13
9330ResidentRyona Chest Burster / Alien thread 34 20 2017-07-25 11:52:48
43 Penectomy and Castration 141 98 2017-07-24 20:16:20
10251Comicsangms Dante's Sacrilege 64 54 2017-07-24 08:44:55
3888 Keeper stuff 125 27 2017-07-21 09:34:27
10216samme Young Ashamed & Tormented: Amazing Movies -Tentacle Edition- (w/ SS & Pregnancy) 11 3 2017-07-21 08:27:44
4600KillerX Killer X spare change thread 80 32 2017-07-21 06:32:29
11146Batfan Batbabe´s secret corner 19 12 2017-07-20 07:17:38
9125BlueButcher BlueButcher's SFM Works 54 15 2017-07-14 14:35:28
9489 Devil may Poop (scat series) 16 5 2017-07-12 18:24:01
149 CG Amputees 72 67 2017-07-11 00:59:35
12547goREX Reporting for duty 8 2 2017-07-11 00:44:55
12595DisgustingPervert(ButI'mBeautiful!) stuff 20 20 2017-07-04 20:09:11
5878PusKiller 3D Pussy Pain 374 173 2017-07-04 06:20:36
7158SKDA SKDA SFM 129 17 2017-07-02 18:33:18
10361Sapik My "art" ("happy" loli torture, guro) 112 35 2017-06-30 22:17:28
7656Fuuby Cookie guro 7 1 2017-06-24 02:26:26
1224PixOlogy Arya - The Fallen Elf 24 6 2017-06-15 10:49:07
12324 lordrogue/beatingoffbob. 8 7 2017-06-15 10:42:48
3803 First go with Sfm 11 1 2017-06-08 02:09:07
11131 3D limbless girl 25 2 2017-06-06 20:10:39
11214D My Work 6 4 2017-06-05 23:10:18
9951 (video1) Bill3D1 (from Premium Hentai) 6 5 2017-05-31 08:48:08
10828 QUOOM.COM SITERIP pages : 4958 part1/2 Format : JPG 11 4 2017-05-14 03:31:06
11417 Trihaf 8 1 2017-05-13 01:03:40
4476KillerX Killers new thread for 1 series 67 10 2017-05-11 00:16:53
8827Pussy Destroyer Futa Genital Mutilation 5 1 2017-05-11 00:13:59
11359 This is pretty hot 5 3 2017-05-09 14:05:09
4967Mr. Friendly The anniversary of Diana's and Roxy. 13 5 2017-05-05 19:02:53
1214asUwish do as you wish boy 21 1 2017-05-05 08:37:46
11467Yerik BadOnion 53 47 2017-05-04 22:56:25
10542Sapik Sapik thread... 15 3 2017-05-03 02:04:19
11461yerik author's works 4 2 2017-04-27 14:47:21
6641rediculo Self mutilation 42 20 2017-04-24 13:24:10
11201 limbless animation 7 2 2017-04-18 07:19:11
9985samme Girls and rope 10 4 2017-04-09 11:53:42
1099788174 New art 12 3 2017-04-08 16:27:41
9948samme Vault Girls (The Last Of Us) COMPLETE Web Series 16 2 2017-04-04 08:59:15
10858 Alien invaders vs magical girl 2 1 2017-03-30 18:00:36
9743Kitty Cunt My Daz3D Works 25 10 2017-03-24 17:51:36
10621samme 24 Hours-1-2 11 8 2017-03-21 16:54:04
10704BlueButcher - discord.gg/3Eh6 Bounty for a guillotine model in SFM 2 1 2017-03-21 00:41:32
10249samme VAMPIRELA AND THE LESBIAN MISTERSS 3D VIDEO HD 3 2 2017-03-15 19:15:33
10397samme watch now Where the Dead Go to Die 9 8 2017-03-07 19:52:03
10375samme Guro Hentai Images Collection Vol.16 2 2 2017-03-06 19:54:48
10315samme The Independent Investigator Izumi 3D 2 2 2017-03-05 17:38:04
10200samme Guro Hentai Pics Collection Vol.18 9 6 2017-03-05 10:02:34
8864puca Ryonaest Dungeon 53 38 2017-03-05 04:46:49
10207samme Thulsa Doom's The Minotian Duty 1.0 10 7 2017-03-05 04:18:32
9960samme Hurt from Premium Hentai 13 7 2017-03-04 12:31:03
9932 VR Snuff 27 3 2017-03-03 20:42:42
9900rediculo Naughty Nurse 38 19 2017-02-27 16:11:44
9990samme Princess Friends 2 1 2017-02-25 07:58:32
3372RopeDart Full SFM Animations 43 7 2017-02-21 13:58:05
9919samme Arisa & Rumi: Secret First Experience Pt. 2 3 3 2017-02-20 19:22:13
9918samme Laura in Trouble 1 1 2017-02-20 17:39:34
9401Onix Suspended fashion show 57 45 2017-02-11 14:36:23
8124 3D Guttings 11 11 2017-02-08 04:49:35
8426rupau Breaking wheel 7 6 2017-02-06 10:18:50
9564Onix churrh fundraising (roleplay) 9 1 2017-02-04 18:36:35
5290Arcane Bitter End 43 9 2017-02-01 05:36:04
7059Adeptus12 Captured and tortured assassin 82 42 2017-02-01 05:21:24
4412 Wayferer 47 31 2017-01-24 22:14:39
8289 FPZ3D no trading, just sharing 227 223 2017-01-22 17:46:10
4796gurohana Gurohana's renders 14 8 2017-01-19 20:54:51
8915rediculo Elven Ambush 16 9 2017-01-17 05:44:43
6899poser amateur short drowning 13 10 2017-01-13 17:43:46
2998kira Acaciaba art 17 13 2017-01-11 12:25:10
7682 Lara Croft Scat 10 5 2017-01-10 16:39:44
370 Beheaded 42 13 2017-01-05 01:40:19
335 BEHEADING THREAD! 131 99 2016-12-21 02:50:12
8052 PTARMIGAN 4 3 2016-12-14 13:44:43
5827SexyBlondeDead SBD Request Thread 24 18 2016-11-23 07:54:23
6414Naazgul Naaz's SFM stuff 7 1 2016-11-03 10:46:54
6997Onix Breast enhancement at home 5 1 2016-11-01 23:37:14
7026 Random Guro animations 27 1 2016-10-28 15:07:11
3219kira Cool sawing animation 8 1 2016-09-08 06:29:46
1087DewX Art DewX 3D 93 77 2016-09-01 08:26:30
5JPX Cheremosh 50 38 2016-08-24 19:09:03
836 cooking 40 25 2016-08-24 06:41:17
5861Jelly First SFM Tries 8 1 2016-08-11 06:58:54
3224 First attempt. 40 17 2016-08-09 21:39:16
5709 A comic 16 3 2016-08-02 05:00:42
5502LG LG's SFM animations 13 1 2016-07-17 15:39:53
5286 SFM Stuff 22 3 2016-07-06 10:36:01
5326EyEotm's 3D Locker EyeontheMoney's Digital Dump 2 2 2016-06-20 03:41:45
46Ebola chan cultist Kathyrne 41 32 2016-06-19 21:41:10
3029 SFM first tries 25 12 2016-06-17 04:00:09
5231DolcettKingdom Dolcett 3d, still learning 8 5 2016-06-16 23:09:39
5160Immortal Starting SFM 1 1 2016-06-05 23:38:31
4859Drigg My manips and artistic renders 11 7 2016-05-20 13:10:23
4660Iras Cadmus My new pics about rape 'n debreasting 12 4 2016-04-09 07:07:24
298Pixiv ID: 7333933 Cut Off Her Meat! [3P] 14 8 2016-04-04 01:19:36
282Mek 3DCG Robot, Cyborg and Mecha Girls 36 32 2016-03-28 18:26:47
1358Pixiv ID: 7333933 The Flesh Of A Whore 10 4 2016-03-14 16:38:00
3148kira Higgs 16 8 2016-03-14 06:42:54
3069warlordsun seppuku 9 4 2016-03-11 18:58:15
4257 Asphia and the tormented forest 3 1 2016-03-08 11:39:28
4052Fatal-Ryona Fatal Ryona's XPS Dojo 12 6 2016-02-29 04:45:46
2977 Afro Samurai 2? 9 1 2016-02-27 18:24:56
2672 Andruxon`s art 27 20 2016-01-26 22:03:22
2763lapitalapetos looking for 3D artists/animators/programmers 5 1 2016-01-18 13:45:50
3261 Turning 3D Into a 2D/painted look 11 3 2016-01-09 02:21:09
668kira Hieronymous art 50 43 2016-01-06 10:44:38
3248 Can It Be Done? 3 1 2015-12-30 19:17:41
2709kira Mr Hyde 6 4 2015-12-13 13:37:50
3112 Sorceress hunt 6 4 2015-12-13 13:28:50
2737Mr. Unknown Spitvideo 3 2 2015-11-10 16:19:19
3 Elf its whats for dinner 5 1 2015-11-01 04:54:24
2170 Working With Keyshot 7 4 2015-09-18 12:48:21
2493kira Ropeman 84 82 2015-09-06 13:59:10
107KillerX DeBreasting 24 17 2015-08-15 20:29:31
Open post form
My 3D Pics
387 posts and 249 images omitted
Freeman's SFM animations- Second Thread
Figured I'd start a new thread seeing as my old one was filled with a lot of animations from almost 2 years ago, this way you won't have to scroll through a bunch of crap to get to my most recent work.

Here’s a new series folks.. I intend to create more than a few of these in the same setting testing out anything from sub machine guns, heavy machine guns, explosives and what I’ve been wanting to do for some time that came second in line to the 50. cal sniper rifle, next F.W.T.F weapon for testing will be a Titan.. that’s right folks.. a MECH FROM TITANFALL! firing rockets and all kinds of crazy shit.

**DOWNLOAD AND VIEW IN QUICKTIME**
watching this even on the stream will appear much darker than it actually is.
the picture attached to this post shows the actual lighting.


F.W.T.F (Freeman’s Weapons Testing Facility)
Subject # 36
Testing L115A31 firing hollow point 50. bmg rounds.

here's the stream link
https://my.mixtape.moe/noorek.mp4

and the download link to my dropbox page

https://www.dropbox.com/sh/pzmlt7scant3sw1/AAD09phupKnjE0Ai7E8sh9cha?dl=0

please comment and let me know what you think !
9 posts and 1 image omitted
>>13797
cool. maybe next time put the gun under her chin or in her mouth?
What about a animation with quiet aiming with her rifle, then a guy come from behind her and
1. broke her neck
2. slice her throat
3. shot in the head
and he take her body to have fun
>>13716
Hi Freeman, I've got one suggestion/request.

I think it would be great if the shooters on the testing range decide to try out their latest weapon on one of the unsuspecting technician girls on the right.
Then they can test out the weapon's accuracy on a moving target as the other girl runs before finishing off the 'proper' target.
Orc vs Elf
Female Elf Cleric getting her head lopped off by an Orc.

1/10
41 posts and 28 images omitted
This shit is epic. Make a patreon dude and take my fucking money
I LOVE the pregnant elves getting butchered! Keep it up!
Holy shit that is hot as hell. Can you do a reverse deepthroat version?
№9665
That would be the bomb :V
Dorumeka's interactive dorus
Hi, I'm a videogame 3D artist very interested in the idea of only making perverted stuff for us depraved people of the dark corners of the web. I make my 3D art mostly from scratch. That means Sculpting, modelling, texturing and animating. I also use Unity for my renderings and for programming interactivity, as I prefer my work to be interactable.

That means that it takes time, longer than using DAZ or SFM, sadly. My output is a bit slower than most I think, but the upside is that what I do has my own style. That and the interactivity, which is pretty important to me.

I have a devblog on tumblr where I post short videos of what I'm currently developing and an itch.io store where I'll put all my testing builds up for a couple bucks each. I also have a Patreon, but I won't ask you to support me because I know I still haven't yet delivered anything big to show. You can look me up in all of those places just by typing my name, which is Dorumeka.

If you are confused by the word I use to describe my work, ~doru~, it means doll. I see my models as dolls, in the adult toy sense, that are made for people to play with.

Well, that was a lot of text. I will share some images in here periodically. Expect to see dismemberment, ryona, zako and maybe even a bit of vore for now. If everything goes well, I'll keep doing pervy games and toys.
55 posts and 6 images omitted
Hello, not sure if it's to your taste, but have you ever thought of adding in something along the lines of neck breaking?
I've just created a twitch account. I don't know if the streams will be saved since I'm listening to copyrighted music, but here's the link to my channel anyway: twitch.tv/dorumeka
Could you please add penises? I've always wanted to chop a dick off in a game, even if it's a game like this.
The Tragic side of Funnybizness
I guess I will be posting my creations on the 3dCG board from now on. I will be showcasing all of my projects and even have little stories consisting of Guro, Ryona, Necro, Lolis, Shotas, basicallyu everything a pervert would want lmao!

https://gfycat.com/ExcellentImpressionableHammerkop
https://gfycat.com/EllipticalGregariousAlligatorgar
https://gfycat.com/LastOilyIguana
https://gfycat.com/FloweryFortunateJabiru
https://gfycat.com/RegularWideGordonsetter
354 posts and 143 images omitted
Ok so I JUST learned how to export as a WEBM...SO BRUTAL THINGS ARE ABOUT TO GO DOWN LOL
these look awesome but id have some type of request. so far i think youve done guro with futas, lolis and women.
think you could do some brutal animations with shotas getting mutilated, or at least amputee shots getting pounded by a horse while in bondage or something crazy? would be so amazing and rare too Q_Q
>>13841
Lol I love your name! And hell yeah! Now that I know how to create WEBMS I can definitely do that and WITH sound effects! Lol stay brutal
SFM Animations and Scraps: The Fourth
Third thread reached it's bump limit, time for a fourth thread.

-First Thread: https://www.gurochan.ch/3dcg/res/1931.html
-Second Thread: https://www.gurochan.ch/3dcg/res/5180.html
-Third Thread: https://www.gurochan.ch/3dcg/res/8840.html


Tavern Trouble


Far in the wilderness of the riverlands lies a quaint little settlement. Far from the troubles of war in the nearby country, the settlers hoped to live in peace in the rural lands. However, the village was preyed upon by a tribe of lizardmen a few years after it's construction. The beastfolk mostly caused minor trouble with the townsfolk but as time went on they became far more dangerous. Petty theft of food escalated to theft of gold, weapons, and armor, until eventually villagers went missing. With most of the settlers too invested in their new home or simply incapable of building elsewhere, they found themselves in a difficult situation. Unable to fend off the lizardmen themselves, the town invested enough funds to place a bounty for anyone capable of protecting the town from the invaders. Mercenaries began traveling to the town, the well armed and experienced adventurers stayed in town as each group planned how they would wipe out the village. Most were there just to take advantage of the isolated town's desperation, drinking ale and sleeping in inns for free. Their presence in the village alone deterred the lizardmen from raiding the town for several days, so it was a small price the townsfolk were willing to pay.
One such adventurer attracted to the promise of gold was a lone adventurer from the south. A curvy and tall woman, even the other beautiful wenches and visiting mercs paled in comparison. The gawking eyes of the village could all but see the confidence radiating from her skin exposed by her slutty outfit. Many parties residing in the town offered her a place in their group, many of which were simply men desperate to earn her favor. She denied them all, spending her nights boasting of her past feats of valor and how she would slaughter the invaders herself. The residents and visitors wondered how someone with such little armor could ever expect to fend off the tribal beastmen.
The ni…Post truncated. View full.
120 posts and 12 images omitted
>>13775

doesnt seem like that guy is taking credit for OPs stuff so I dont think thats too bad because now more people can find it
OP do you think you could do something with these shark models?
sfmlab.com/item/2279

maybe someone getting half eaten by a shark and then the rest being used by a passerby or a villain?
Love your works! Please make more witcher and overwatch animations.
eyeteeth's doomed heroines
160 posts and 80 images omitted
I really like this character.
>>13801
i'm glad, i will be putting up a lot more of her comics here :D they are old comics that have been up on my EI site for a while, but i have never put them up for free
Gmod
7 posts and 3 images omitted
The Artwork of Kathyrne
Hey Everyone,

I'm not sure how many of you have heard of Kathyrne but I figured I'd throw up a thread for her! She's the artist behind many busty heroines and their brutal demises. I'm gonna add some of her old work that I've saved here and there, feel free to do the same!

She actually just setup shop on Patreon so if you like what you see here consider supporting her there! She'll be posting almost daily
h$$ps://www.patreon.com/Kathyrne
27 posts and 19 images omitted
My first series
Here I will post my first image series.
First picture is from the middle of something like 30 in total.

After quite long delay I made some pictures. I hot to use powerful GPU card for some time, so rendering is almost instant now.
Current series are somewhat related to one of KillerX ancient works when he was under different name because I really liked that girl character. I wonder if anyone will be able to guess them.

Unfortunately needle bulge morphs are insanely hard to do because of deformer problems in daz3d so pictures look somewhat plain.
305 posts and 158 images omitted
This will be last for today.